Location: ??
(35.5138°N, 139.6953°E)
Time: 08:32:37
(UTC+00:00)

STARLINK-1130 (DARKSAT) - Pass Details

Date: 07 June 2020
Orbit: 549 x 550 km, 53.0° (Epoch: 06 July)

Event Time Altitude Azimuth Distance (km) Brightness Sun altitude
Rises 11:02:57 0° 316° (NW) 2,720 9.2 -12.3°
Reaches altitude 10° 11:05:12 10° 319° (NW) 1,824 7.7 -12.6°
Maximum altitude 11:09:19 66° 42° (NE) 600 3.8 -13.2°
Enters shadow 11:11:51 22° 121° (ESE) 1,218 4.8 -13.6°
